TimeEDT,TemperatureF,Dew PointF,Humidity,Sea Level PressureIn,VisibilityMPH,Wind Direction,Wind SpeedMPH,Gust SpeedMPH,PrecipitationIn,Events,Conditions,WindDirDegrees,DateUTC
12:56 AM,75.9,67.8,76,29.84,12.0,SW,6.9,-,N/A,,Mostly Cloudy,230,2013-09-13 04:56:00
1:56 AM,74.3,67.5,79,29.82,12.0,SW,4.6,-,N/A,,Mostly Cloudy,230,2013-09-13 05:56:00
2:56 AM,73.4,66.7,80,29.81,12.0,WNW,3.5,-,N/A,,Clear,290,2013-09-13 06:56:00
3:56 AM,70.3,66.9,89,29.80,12.0,WSW,2.3,-,N/A,,Clear,240,2013-09-13 07:56:00
4:56 AM,69.4,66.2,89,29.80,11.0,Variable,1.2,-,N/A,,Clear,0,2013-09-13 08:56:00
5:56 AM,69.3,66.9,92,29.81,9.0,West,4.6,-,N/A,,Clear,280,2013-09-13 09:56:00
6:56 AM,69.8,66.9,91,29.82,8.0,NW,4.6,-,N/A,,Mostly Cloudy,310,2013-09-13 10:56:00
7:56 AM,69.4,67.3,93,29.84,5.0,NW,4.6,-,N/A,,Clear,320,2013-09-13 11:56:00
8:56 AM,75.4,66.2,73,29.85,12.0,North,6.9,-,N/A,,Clear,350,2013-09-13 12:56:00
9:56 AM,80.8,60.3,49,29.85,12.0,NNW,10.4,-,N/A,,Clear,340,2013-09-13 13:56:00
10:56 AM,82.4,57.9,43,29.85,12.0,North,12.7,-,N/A,,Partly Cloudy,350,2013-09-13 14:56:00
11:56 AM,84.9,58.1,40,29.84,12.0,North,11.5,16.1,N/A,,Clear,10,2013-09-13 15:56:00
12:56 PM,85.8,55.8,36,29.83,12.0,NNW,11.5,18.4,N/A,,Partly Cloudy,330,2013-09-13 16:56:00
1:56 PM,86.4,55.6,35,29.81,12.0,Variable,6.9,13.8,N/A,,Partly Cloudy,0,2013-09-13 17:56:00
2:56 PM,87.4,54.3,32,29.79,12.0,WNW,11.5,18.4,N/A,,Scattered Clouds,300,2013-09-13 18:56:00
3:56 PM,88.9,54.3,31,29.79,12.0,WNW,13.8,18.4,N/A,,Scattered Clouds,290,2013-09-13 19:56:00
4:56 PM,87.6,53.4,31,29.79,12.0,West,12.7,17.3,N/A,,Clear,270,2013-09-13 20:56:00
5:56 PM,85.3,54.5,35,29.79,12.0,WNW,6.9,15.0,N/A,,Partly Cloudy,300,2013-09-13 21:56:00
6:56 PM,81.9,56.5,42,29.80,12.0,North,4.6,-,N/A,,Scattered Clouds,360,2013-09-13 22:56:00
7:56 PM,77.9,57.0,48,29.82,12.0,North,6.9,-,N/A,,Mostly Cloudy,360,2013-09-13 23:56:00
8:56 PM,75.6,57.9,54,29.86,7.0,NNE,6.9,-,N/A,,Haze,20,2013-09-14 00:56:00
9:56 PM,75.0,53.6,47,29.88,12.0,NNE,9.2,-,N/A,,Mostly Cloudy,20,2013-09-14 01:56:00
10:56 PM,72.5,50.7,46,29.90,12.0,North,9.2,-,N/A,,Scattered Clouds,10,2013-09-14 02:56:00
11:56 PM,71.6,49.5,45,29.90,12.0,North,11.5,-,N/A,,Mostly Cloudy,10,2013-09-14 03:56:00